When you browse on this site, cookies collect data to enhance your experience and personalize the content and advertising you see.
Visit our Privacy Policy to learn more. By continuing to use the site, you agree to this use of cookies and data.
  • Em Portugal
  • Lista de países
  • Para 7 dias
  • Temperatura da água
  • Mapas de satélite
  • Mapa do tempo
  • Widgets de tempo
  • user-avatar
    Iniciar Sessão

    Previsão horária em Druzhkovka

    Hoje, 27 Maio, Segunda-feira

    Tempo Temperatura Precipitação Vento Pressão Humidade
    00:00 +16°C° 0.1 mm 3 m/s 748 mmHg 93%
    01:00 +16°C° 0 mm 3 m/s 748 mmHg 93%
    02:00 +14°C° 0 mm 3 m/s 748 mmHg 93%
    03:00 +14°C° 0 mm 3 m/s 749 mmHg 93%
    04:00 +15°C° 0 mm 2 m/s 749 mmHg 92%
    05:00 +15°C° 0 mm 2 m/s 749 mmHg 91%
    06:00 +16°C° 0 mm 2 m/s 750 mmHg 91%
    07:00 +17°C° 0 mm 2 m/s 750 mmHg 84%
    08:00 +19°C° 0 mm 2 m/s 751 mmHg 77%
    09:00 +21°C° 0 mm 3 m/s 751 mmHg 70%
    10:00 +22°C° 0 mm 3 m/s 751 mmHg 64%
    11:00 +24°C° 0 mm 3 m/s 752 mmHg 59%
    12:00 +25°C° 0 mm 3 m/s 752 mmHg 53%
    13:00 +25°C° 0 mm 3 m/s 752 mmHg 54%
    14:00 +25°C° 0 mm 3 m/s 752 mmHg 54%
    15:00 +25°C° 0 mm 3 m/s 752 mmHg 54%
    16:00 +25°C° 0 mm 3 m/s 752 mmHg 55%
    17:00 +25°C° 0 mm 2 m/s 752 mmHg 57%
    18:00 +25°C° 0 mm 2 m/s 752 mmHg 58%
    19:00 +23°C° 0 mm 2 m/s 752 mmHg 63%
    20:00 +21°C° 0 mm 1 m/s 753 mmHg 67%
    21:00 +18°C° 0 mm 0 m/s 753 mmHg 72%
    22:00 +17°C° 0 mm 0 m/s 753 mmHg 73%
    23:00 +17°C° 0 mm 0 m/s 753 mmHg 74%

    Amanhã, 28 Maio, Terça-feira

    Tempo Temperatura Precipitação Vento Pressão Humidade
    00:00 +16°C° 0 mm 0 m/s 753 mmHg 75%
    01:00 +16°C° 0 mm 0 m/s 753 mmHg 76%
    02:00 +18°C° 0 mm 1 m/s 754 mmHg 77%
    03:00 +18°C° 0 mm 1 m/s 754 mmHg 77%
    04:00 +18°C° 0 mm 1 m/s 754 mmHg 78%
    05:00 +18°C° 0 mm 1 m/s 754 mmHg 78%
    06:00 +19°C° 0 mm 1 m/s 754 mmHg 78%
    07:00 +21°C° 0 mm 1 m/s 754 mmHg 72%
    08:00 +21°C° 0 mm 2 m/s 755 mmHg 66%
    09:00 +24°C° 0 mm 2 m/s 755 mmHg 60%
    10:00 +25°C° 0 mm 2 m/s 755 mmHg 55%
    11:00 +26°C° 0 mm 2 m/s 755 mmHg 51%
    12:00 +27°C° 0 mm 2 m/s 755 mmHg 47%
    13:00 +27°C° 0 mm 2 m/s 755 mmHg 46%
    14:00 +28°C° 0 mm 2 m/s 754 mmHg 44%
    15:00 +28°C° 0 mm 2 m/s 754 mmHg 43%
    16:00 +28°C° 0 mm 2 m/s 754 mmHg 46%
    17:00 +28°C° 0 mm 2 m/s 754 mmHg 49%
    18:00 +28°C° 0 mm 2 m/s 753 mmHg 52%
    19:00 +26°C° 0 mm 2 m/s 753 mmHg 57%
    20:00 +24°C° 0 mm 2 m/s 754 mmHg 61%
    21:00 +21°C° 0 mm 3 m/s 754 mmHg 66%
    22:00 +20°C° 0 mm 2 m/s 754 mmHg 69%
    23:00 +19°C° 0 mm 2 m/s 754 mmHg 72%

    Depois de amanhã, 29 Maio, Quarta-feira

    Tempo Temperatura Precipitação Vento Pressão Humidade
    00:00 +19°C° 0 mm 2 m/s 754 mmHg 76%
    01:00 +19°C° 0 mm 1 m/s 754 mmHg 76%
    02:00 +19°C° 0 mm 1 m/s 754 mmHg 77%
    03:00 +18°C° 0 mm 1 m/s 754 mmHg 78%
    04:00 +18°C° 0 mm 2 m/s 754 mmHg 78%
    05:00 +18°C° 0 mm 2 m/s 754 mmHg 78%
    06:00 +18°C° 0 mm 2 m/s 754 mmHg 79%
    07:00 +20°C° 0 mm 3 m/s 754 mmHg 71%
    08:00 +22°C° 0 mm 4 m/s 754 mmHg 64%
    09:00 +25°C° 0 mm 4 m/s 754 mmHg 57%
    10:00 +26°C° 0 mm 5 m/s 754 mmHg 54%
    11:00 +27°C° 0 mm 5 m/s 754 mmHg 50%
    12:00 +28°C° 0 mm 5 m/s 754 mmHg 47%
    13:00 +28°C° 0 mm 5 m/s 754 mmHg 47%
    14:00 +29°C° 0 mm 5 m/s 753 mmHg 47%
    15:00 +29°C° 0 mm 5 m/s 753 mmHg 46%
    16:00 +29°C° 0 mm 4 m/s 753 mmHg 50%
    17:00 +28°C° 0 mm 4 m/s 753 mmHg 55%
    18:00 +28°C° 0 mm 3 m/s 753 mmHg 59%
    19:00 +26°C° 0 mm 3 m/s 753 mmHg 62%
    20:00 +24°C° 0 mm 3 m/s 753 mmHg 65%
    21:00 +21°C° 0 mm 3 m/s 753 mmHg 68%
    22:00 +21°C° 0 mm 3 m/s 753 mmHg 70%
    23:00 +20°C° 0 mm 3 m/s 753 mmHg 72%

    30 Maio, Quinta-feira

    Tempo Temperatura Precipitação Vento Pressão Humidade
    00:00 +20°C° 0 mm 3 m/s 753 mmHg 74%
    01:00 +19°C° 0 mm 3 m/s 753 mmHg 75%
    02:00 +19°C° 0 mm 2 m/s 753 mmHg 77%
    03:00 +18°C° 0 mm 2 m/s 753 mmHg 79%
    04:00 +19°C° 0 mm 2 m/s 753 mmHg 79%
    05:00 +19°C° 0 mm 3 m/s 753 mmHg 78%
    06:00 +19°C° 0 mm 3 m/s 753 mmHg 78%
    07:00 +21°C° 0 mm 3 m/s 753 mmHg 72%
    08:00 +23°C° 0 mm 4 m/s 753 mmHg 66%
    09:00 +26°C° 0 mm 5 m/s 753 mmHg 59%
    10:00 +28°C° 0 mm 5 m/s 753 mmHg 55%
    11:00 +29°C° 0 mm 5 m/s 753 mmHg 50%
    12:00 +30°C° 0 mm 5 m/s 753 mmHg 45%
    13:00 +30°C° 0 mm 5 m/s 753 mmHg 45%
    14:00 +32°C° 0 mm 5 m/s 753 mmHg 44%
    15:00 +32°C° 0 mm 5 m/s 753 mmHg 44%
    16:00 +32°C° 0 mm 4 m/s 752 mmHg 49%
    17:00 +30°C° 0 mm 3 m/s 752 mmHg 53%
    18:00 +30°C° 0 mm 3 m/s 752 mmHg 57%
    19:00 +28°C° 0 mm 3 m/s 752 mmHg 61%
    20:00 +26°C° 0 mm 3 m/s 752 mmHg 65%
    21:00 +24°C° 0 mm 3 m/s 752 mmHg 68%
    22:00 +22°C° 0 mm 3 m/s 752 mmHg 70%
    23:00 +22°C° 0 mm 3 m/s 752 mmHg 72%

    31 Maio, Sexta-feira

    Tempo Temperatura Precipitação Vento Pressão Humidade
    00:00 +21°C° 0 mm 3 m/s 752 mmHg 74%
    01:00 +20°C° 0 mm 3 m/s 752 mmHg 75%
    02:00 +20°C° 0 mm 3 m/s 752 mmHg 76%
    03:00 +19°C° 0 mm 3 m/s 752 mmHg 77%
    04:00 +20°C° 0 mm 3 m/s 752 mmHg 78%
    05:00 +20°C° 0 mm 3 m/s 752 mmHg 79%
    06:00 +20°C° 0 mm 3 m/s 752 mmHg 80%
    07:00 +22°C° 0 mm 4 m/s 752 mmHg 73%
    08:00 +25°C° 0 mm 4 m/s 751 mmHg 66%
    09:00 +27°C° 0 mm 5 m/s 751 mmHg 59%
    10:00 +29°C° 0 mm 5 m/s 751 mmHg 54%
    11:00 +30°C° 0 mm 6 m/s 751 mmHg 49%
    12:00 +32°C° 0 mm 6 m/s 751 mmHg 44%
    13:00 +32°C° 0 mm 6 m/s 750 mmHg 43%
    14:00 +33°C° 0 mm 6 m/s 750 mmHg 43%
    15:00 +33°C° 0 mm 5 m/s 750 mmHg 43%
    16:00 +32°C° 0 mm 5 m/s 750 mmHg 48%
    17:00 +30°C° 0 mm 4 m/s 749 mmHg 53%
    18:00 +30°C° 0 mm 3 m/s 749 mmHg 59%
    19:00 +28°C° 0 mm 3 m/s 749 mmHg 60%
    20:00 +27°C° 0 mm 3 m/s 749 mmHg 62%
    21:00 +25°C° 0 mm 3 m/s 749 mmHg 64%
    22:00 +25°C° 0 mm 3 m/s 749 mmHg 65%
    23:00 +24°C° 0 mm 3 m/s 748 mmHg 66%

    1 Junho, Sábado

    Tempo Temperatura Precipitação Vento Pressão Humidade
    00:00 +22°C° 0 mm 3 m/s 748 mmHg 68%
    01:00 +22°C° 0 mm 3 m/s 748 mmHg 68%
    02:00 +21°C° 0 mm 3 m/s 748 mmHg 69%
    03:00 +21°C° 0 mm 3 m/s 748 mmHg 70%
    04:00 +21°C° 0 mm 3 m/s 748 mmHg 71%
    05:00 +21°C° 0 mm 3 m/s 748 mmHg 72%
    06:00 +21°C° 0 mm 3 m/s 748 mmHg 73%
    07:00 +23°C° 0 mm 4 m/s 748 mmHg 64%
    08:00 +26°C° 0 mm 6 m/s 748 mmHg 55%
    09:00 +28°C° 0 mm 7 m/s 748 mmHg 46%
    10:00 +29°C° 0 mm 8 m/s 748 mmHg 44%
    11:00 +31°C° 0 mm 9 m/s 748 mmHg 41%
    12:00 +32°C° 0 mm 9 m/s 748 mmHg 39%
    13:00 +32°C° 0 mm 9 m/s 748 mmHg 40%
    14:00 +32°C° 0 mm 9 m/s 747 mmHg 42%
    15:00 +32°C° 0 mm 9 m/s 747 mmHg 43%
    16:00 +32°C° 0 mm 7 m/s 747 mmHg 48%
    17:00 +30°C° 0 mm 6 m/s 747 mmHg 53%
    18:00 +30°C° 0 mm 4 m/s 747 mmHg 57%
    19:00 +28°C° 0 mm 4 m/s 747 mmHg 59%
    20:00 +26°C° 0 mm 3 m/s 747 mmHg 61%
    21:00 +25°C° 0 mm 3 m/s 747 mmHg 63%
    22:00 +24°C° 0 mm 3 m/s 747 mmHg 65%
    23:00 +24°C° 0 mm 2 m/s 747 mmHg 66%
    Mostrar mais